KD0OXW Weather Reports


time (UTC)temp
C
wind
direction
speed
KPH
gust
KPH
rain 1hr
cm
rain 24hr
cm
rain mn
cm
humidity
%
barometer
mb
20260503213315 18 322 9.7 22.5 0.00 0.03 0.03 22 1002.9
20260503212815 18 348 8.0 22.5 0.00 0.03 0.03 21 1002.9
20260503212315 18 309 6.4 19.3 0.00 0.03 0.03 20 1002.8
20260503211815 19 276 6.4 17.7 0.00 0.03 0.03 22 1002.8
20260503211315 19 269 8.0 20.9 0.00 0.03 0.03 20 1002.9
20260503210815 18 275 8.0 17.7 0.00 0.03 0.03 21 1002.8
20260503210315 18 348 9.7 22.5 0.00 0.03 0.03 21 1002.8
20260503205815 18 210 9.7 25.7 0.00 0.03 0.03 21 1002.7
20260503205315 19 306 8.0 17.7 0.00 0.03 0.03 23 1002.8
20260503204815 18 275 9.7 19.3 0.00 0.03 0.03 22 1002.8
20260503204315 19 315 11.3 25.7 0.00 0.03 0.03 22 1003.0
20260503203815 19 263 9.7 24.1 0.00 0.03 0.03 25 1003.0
20260503203315 19 45 9.7 17.7 0.00 0.03 0.03 26 1002.9
20260503202815 18 349 9.7 32.2 0.00 0.03 0.03 24 1002.9
20260503202315 18 275 9.7 17.7 0.00 0.03 0.03 24 1003.0
20260503201815 18 309 12.9 20.9 0.00 0.03 0.03 24 1003.1
20260503201315 18 321 11.3 22.5 0.00 0.03 0.03 27 1003.2
20260503200815 19 311 9.7 22.5 0.00 0.03 0.03 24 1003.1
20260503200315 18 344 11.3 27.4 0.00 0.03 0.03 27 1003.3
20260503195815 18 349 11.3 25.7 0.00 0.03 0.03 27 1003.2
20260503195315 18 338 8.0 17.7 0.00 0.03 0.03 29 1003.1
20260503194815 18 275 8.0 19.3 0.00 0.03 0.03 29 1003.2
20260503194315 18 355 8.0 20.9 0.00 0.03 0.03 30 1003.1
20260503193815 18 213 8.0 20.9 0.00 0.03 0.03 28 1003.2
20260503193315 18 169 9.7 30.6 0.00 0.03 0.03 28 1003.1
20260503192815 18 272 9.7 24.1 0.00 0.03 0.03 29 1003.3
20260503192315 18 217 9.7 25.7 0.00 0.03 0.03 30 1003.3
20260503191815 18 198 9.7 19.3 0.00 0.03 0.03 32 1003.4
20260503191315 18 310 9.7 24.1 0.00 0.03 0.03 31 1003.3
20260503190815 18 230 9.7 20.9 0.00 0.03 0.03 29 1003.4
20260503190315 18 5 8.0 20.9 0.00 0.03 0.03 29 1003.5
20260503185815 18 229 6.4 16.1 0.00 0.03 0.03 32 1003.6
20260503185315 18 96 6.4 16.1 0.00 0.03 0.03 32 1003.5
20260503184815 18 348 8.0 16.1 0.00 0.03 0.03 33 1003.7
20260503184315 18 289 9.7 24.1 0.00 0.03 0.03 32 1003.7
20260503183815 18 291 9.7 24.1 0.00 0.03 0.03 32 1003.9
20260503183315 18 293 8.0 24.1 0.00 0.03 0.03 33 1003.7
20260503182815 18 318 9.7 22.5 0.00 0.03 0.03 34 1003.8
20260503182315 18 225 9.7 20.9 0.00 0.03 0.03 35 1003.9
20260503181815 17 249 11.3 16.1 0.00 0.03 0.03 36 1003.9
20260503181315 17 5 12.9 22.5 0.00 0.03 0.03 36 1003.9
20260503180815 17 276 12.9 27.4 0.00 0.03 0.03 35 1004.0
20260503180315 18 335 12.9 22.5 0.00 0.03 0.03 35 1003.9
20260503175815 18 348 9.7 25.7 0.00 0.03 0.03 36 1004.0
20260503175315 18 298 8.0 27.4 0.00 0.03 0.03 34 1004.0
20260503174815 18 302 8.0 16.1 0.00 0.03 0.03 35 1004.2
20260503174315 18 315 9.7 20.9 0.00 0.03 0.03 36 1004.0
20260503173815 17 22 8.0 29.0 0.00 0.03 0.03 38 1004.1
20260503173315 17 204 8.0 24.1 0.00 0.03 0.03 38 1004.1
20260503172815 17 22 9.7 19.3 0.00 0.03 0.03 39 1004.2
20260503172315 17 304 9.7 25.7 0.00 0.03 0.03 40 1004.2
20260503171815 17 306 11.3 24.1 0.00 0.03 0.03 43 1004.2
20260503171315 17 350 9.7 29.0 0.00 0.03 0.03 43 1004.3
20260503170815 17 5 8.0 16.1 0.00 0.03 0.03 41 1004.4
20260503170315 17 316 9.7 22.5 0.00 0.03 0.03 42 1004.5
20260503150815 15 139 6.4 19.3 0.00 0.03 0.03 50 1004.8
20260503150316 15 283 4.8 12.9 0.00 0.03 0.03 54 1004.8
20260503131316 13 207 3.2 12.9 0.00 0.03 0.03 60 1005.1
20260503130816 13 255 3.2 12.9 0.00 0.03 0.03 60 1005.1
20260503130316 12 190 3.2 22.5 0.00 0.03 0.03 62 1005.1
20260503110816 5 173 0.0 0.0 0.00 0.03 0.03 89 1005.1
20260503110316 5 202 0.0 0.0 0.00 0.03 0.03 90 1005.2
20260503090316 7 229 0.0 0.0 0.00 0.03 0.03 86 1006.3
20260503081316 8 229 0.0 0.0 0.00 0.03 0.03 85 1006.7
20260503080817 8 229 0.0 0.0 0.00 0.03 0.03 86 1006.8
20260503080316 8 229 0.0 0.0 0.00 0.03 0.03 85 1006.9
20260503072817 8 229 0.0 0.0 0.03 0.03 0.03 84 1007.7
20260503072317 8 229 0.0 0.0 0.03 0.03 0.03 84 1007.8
20260503071817 8 229 0.0 0.0 0.03 0.03 0.03 84 1007.8
20260503071317 9 229 1.6 0.0 0.03 0.03 0.03 84 1008.0
20260503070817 9 229 1.6 9.7 0.03 0.03 0.03 83 1008.2
20260503070317 9 275 0.0 3.2 0.03 0.03 0.03 84 1008.2
20260503060317 11 292 0.0 4.8 0.00 0.00 0.00 63 1008.8
20260503054817 12 99 0.0 1.6 0.00 0.00 0.00 56 1009.1
20260503054317 12 61 0.0 3.2 0.00 0.00 0.00 56 1009.1
20260503053817 12 290 1.6 1.6 0.00 0.00 0.00 55 1009.1
20260503053317 12 300 1.6 12.9 0.00 0.00 0.00 55 1009.1
20260503052817 12 272 1.6 4.8 0.00 0.00 0.00 55 1009.1
20260503052317 12 298 1.6 6.4 0.00 0.00 0.00 54 1009.1
20260503051817 12 229 1.6 4.8 0.00 0.00 0.00 54 1009.2
20260503051317 12 229 3.2 11.3 0.00 0.00 0.00 55 1009.2
20260503050817 12 248 1.6 8.0 0.00 0.00 0.00 56 1009.2
20260503050317 12 5 1.6 8.0 0.00 0.00 0.00 57 1009.2
20260503045817 11 192 1.6 8.0 0.00 0.00 0.00 57 1009.2
20260503045317 11 281 0.0 3.2 0.00 0.00 0.00 59 1009.2
20260503044817 11 158 0.0 0.0 0.00 0.00 0.00 58 1009.2
20260503044317 11 158 0.0 0.0 0.00 0.00 0.00 58 1009.2
20260503043817 12 261 0.0 4.8 0.00 0.00 0.00 56 1009.3
20260503043317 12 254 0.0 0.0 0.00 0.00 0.00 57 1009.3
20260503042817 12 235 0.0 0.0 0.00 0.00 0.00 56 1009.3
20260503042317 12 235 1.6 1.6 0.00 0.00 0.00 55 1009.4
20260503041817 12 266 1.6 4.8 0.00 0.00 0.00 55 1009.5
20260503041317 12 219 3.2 4.8 0.00 0.00 0.00 55 1009.6
20260503040817 12 350 3.2 9.7 0.00 0.00 0.00 54 1009.6
20260503040317 12 287 3.2 12.9 0.00 0.00 0.00 54 1009.7
20260503035817 12 40 3.2 6.4 0.00 0.00 0.00 55 1009.8
20260503035317 12 231 1.6 17.7 0.00 0.00 0.00 54 1009.9
20260503034817 12 301 3.2 6.4 0.00 0.00 0.00 55 1009.9
20260503034317 12 312 4.8 14.5 0.00 0.00 0.00 55 1010.0
20260503033817 12 152 3.2 14.5 0.00 0.00 0.00 56 1010.0
20260503033317 11 284 3.2 11.3 0.00 0.00 0.00 57 1009.9
20260503032817 11 186 3.2 8.0 0.00 0.00 0.00 56 1010.0
20260503032317 11 112 1.6 8.0 0.00 0.00 0.00 56 1010.1
20260503031817 11 253 1.6 3.2 0.00 0.00 0.00 56 1010.2
20260503031317 11 323 1.6 6.4 0.00 0.00 0.00 57 1010.1
20260503030817 11 93 1.6 4.8 0.00 0.00 0.00 56 1010.3
20260503030317 11 302 1.6 3.2 0.00 0.00 0.00 58 1010.3
20260503025817 11 183 1.6 6.4 0.00 0.00 0.00 59 1010.5
20260503025317 11 305 1.6 3.2 0.00 0.00 0.00 57 1010.5
20260503024817 11 322 3.2 9.7 0.00 0.00 0.00 57 1010.5
20260503024317 11 291 3.2 4.8 0.00 0.00 0.00 55 1010.5
20260503023817 11 123 3.2 6.4 0.00 0.00 0.00 54 1010.4
20260503023317 11 145 1.6 6.4 0.00 0.00 0.00 54 1010.6
20260503022817 11 125 3.2 6.4 0.00 0.00 0.00 53 1010.5
20260503022317 10 191 1.6 12.9 0.00 0.00 0.00 54 1010.5
20260503021817 10 194 0.0 0.0 0.00 0.00 0.00 52 1010.5
20260503021317 10 132 0.0 0.0 0.00 0.00 0.00 53 1010.6
20260503020817 10 59 0.0 0.0 0.00 0.00 0.00 52 1010.5
20260503020317 10 5 0.0 0.0 0.00 0.00 0.00 53 1010.6
20260503015817 10 31 0.0 1.6 0.00 0.00 0.00 52 1010.6
20260503015317 11 88 0.0 0.0 0.00 0.00 0.00 52 1010.5
20260503014817 11 88 0.0 3.2 0.00 0.00 0.00 51 1010.6
20260503014317 11 134 0.0 3.2 0.00 0.00 0.00 50 1010.6
20260503013817 11 138 0.0 1.6 0.00 0.00 0.00 50 1010.6
20260503013317 11 145 0.0 3.2 0.00 0.00 0.00 49 1010.6
20260503012817 11 185 1.6 3.2 0.00 0.00 0.00 49 1010.6
20260503012317 12 138 1.6 4.8 0.00 0.00 0.00 47 1010.6
20260503011817 12 213 1.6 4.8 0.00 0.00 0.00 47 1010.6
20260503011317 12 136 1.6 4.8 0.00 0.00 0.00 47 1010.6
20260503010818 12 170 1.6 4.8 0.00 0.00 0.00 46 1010.6
20260503010317 12 170 1.6 6.4 0.00 0.00 0.00 44 1010.7
20260503005817 12 169 0.0 4.8 0.00 0.00 0.00 44 1010.7
20260503005317 12 142 0.0 3.2 0.00 0.00 0.00 44 1010.8
20260503004817 12 272 0.0 0.0 0.00 0.00 0.00 44 1010.8
20260503004317 13 272 0.0 0.0 0.00 0.00 0.00 43 1010.9
20260503003818 13 272 0.0 3.2 0.00 0.00 0.00 42 1011.0
20260503003318 13 186 0.0 4.8 0.00 0.00 0.00 44 1011.0
20260503002818 13 155 0.0 4.8 0.00 0.00 0.00 43 1011.0
20260503002318 13 250 1.6 1.6 0.00 0.00 0.00 42 1011.1
20260503001818 13 250 1.6 3.2 0.00 0.00 0.00 43 1011.1
20260503001318 13 333 1.6 3.2 0.00 0.00 0.00 42 1011.1
20260503000818 13 130 1.6 3.2 0.00 0.00 0.00 42 1011.2
20260503000318 13 82 1.6 4.8 0.00 0.00 0.00 40 1011.3
20260502235818 13 96 1.6 6.4 0.00 0.00 0.00 41 1011.4
20260502235318 13 310 1.6 3.2 0.00 0.00 0.00 40 1011.4
20260502234818 13 269 1.6 4.8 0.00 0.00 0.00 39 1011.5
20260502234318 14 205 1.6 9.7 0.00 0.00 0.00 42 1011.6
20260502233818 14 61 1.6 4.8 0.00 0.00 0.00 38 1011.6
20260502233318 14 240 1.6 3.2 0.00 0.00 0.00 40 1011.6
20260502232818 14 69 1.6 6.4 0.00 0.00 0.00 39 1011.7
20260502232318 14 179 1.6 4.8 0.00 0.00 0.00 38 1011.8
20260502231818 14 240 3.2 6.4 0.00 0.00 0.00 39 1011.8
20260502231318 14 18 3.2 12.9 0.00 0.00 0.00 39 1011.9
20260502230818 14 185 1.6 4.8 0.00 0.00 0.00 38 1012.2
20260502230318 14 250 1.6 8.0 0.00 0.00 0.00 40 1012.0
20260502225818 14 46 1.6 4.8 0.00 0.00 0.00 39 1012.0
20260502225318 15 220 3.2 4.8 0.00 0.00 0.00 36 1011.9
20260502224818 15 219 3.2 8.0 0.00 0.00 0.00 36 1012.1
20260502224318 15 208 3.2 8.0 0.00 0.00 0.00 35 1012.0
20260502223818 15 13 3.2 8.0 0.00 0.00 0.00 36 1012.2
20260502223318 15 312 4.8 14.5 0.00 0.00 0.00 36 1012.2
20260502222818 15 220 4.8 12.9 0.00 0.00 0.00 35 1012.2
20260502222318 15 321 4.8 14.5 0.00 0.00 0.00 34 1012.3
20260502221818 15 252 4.8 12.9 0.00 0.00 0.00 34 1012.4
20260502221318 15 297 4.8 12.9 0.00 0.00 0.00 34 1012.4
20260502220818 15 67 4.8 12.9 0.00 0.00 0.00 33 1012.4
20260502220318 15 313 4.8 14.5 0.00 0.00 0.00 37 1012.5
20260502215818 15 216 4.8 6.4 0.00 0.00 0.00 34 1012.5
20260502215318 15 216 4.8 12.9 0.00 0.00 0.00 34 1012.6
20260502214818 15 121 6.4 12.9 0.00 0.00 0.00 33 1012.7
20260502214318 15 199 6.4 12.9 0.00 0.00 0.00 34 1012.7
20260502213818 15 132 4.8 11.3 0.00 0.00 0.00 33 1012.6